TSIOLKOVSKY-RYAZAN 1 (*) (53312 NORAD) Tracking and Keplerian Element Data

This shows tracking and keplerian element data for the satellite.

Feedback or suggestion? Click here.




ElementValue
Catalog53312
NameTSIOLKOVSKY-RYAZAN 1 (*)
Epoch Orbit2760
Epoch Day14.20331574
Epoch Year2023
RAAN355.3621
Inclination51.6293
Eccentricity0.0006062
Argument of Perigee80.5173
Mean Anonmoly279.6517
Mean Motion15.8968508
Decay Rate0.00636894
L11 53312U 98067TX 23014.20331574 .00636894 16814-3 21169-2 0 9999
L22 53312 51.6293 355.3621 0006062 80.5173 279.6517 15.89685080 27607



Live tracking and technical data element details for TSIOLKOVSKY-RYAZAN 1 (*) (NORAD 53312). TSIOLKOVSKY-RYAZAN 1 (*) can be tracked NOW for your location showing map with azimuth and elevation plus other details from your city location.







IsCatalogInMostPopularTable: catalog: 53312, numindb: 55
Update: records affected: 1



GetName: 53312 TSIOLKOVSKY-RYAZAN 1 (*)

Hit Count: updated at: Fri, 24 Jan 2025 22:34:27 GMT